SCP
0 0 0 0 0 0 0 0 0 0 0 0 0 0 0 0 0 0 0 0 0 0 0 0 0 0 0 0 0 0 0 0 0 0 0 0 -0 -0 -0 -0 -0 -0 -0 -0 -0 -0 -0 -0 -0
0 0 0 0 0 0 0 0 0 0 0 0 0 0 0 0 0 0 -0 -0 0 0 0 0 0 0 1 0 0 0 0 0 0 0 0 0 0 0 -0 -0 -0 -0 -0 -0 -0 -0 -0 -0 -0
0 0 0 0 0 0 0 0 0 0 0 0 0 0 0 0 0 0 0 0 0 0 0 0 0 0 1 1 0 0 0 0 0 0 0 0 0 0 0 -0 -0 -0 -0 -0 -0 -0 -0 -0 -0
0 0 0 0 0 0 0 0 0 0 0 0 0 0 0 0 0 0 0 0 0 0 0 0 0 0 1 0 0 0 0 0 0 0 0 0 0 0 0 0 0 0 -0 -0 -0 -0 0 0 0
0 0 0 0 0 0 0 0 0 0 0 0 0 0 0 0 0 0 0 0 0 0 0 0 0 0 0 0 0 0 0 0 0 0 0 0 0 0 0 0 0 0 0 0 0 0 0 0 0
0 0 0 0 0 0 0 0 0 0 0 0 0 0 0 0 0 0 0 0 0 0 0 0 0 0 0 0 0 0 0 0 0 0 0 0 0 0 0 0 0 0 0 0 0 0 0 0 0
0 0 0 0 0 0 0 0 0 0 0 0 0 0 0 0 0 0 0 0 0 0 0 1 0 0 0 0 0 0 0 0 0 0 0 0 0 0 0 0 0 0 0 0 0 0 0 0 0
0 0 0 0 0 0 0 0 0 0 0 0 0 0 0 0 0 0 0 0 0 0 0 0 1 0 1 1 0 0 0 0 0 0 0 0 0 0 0 0 0 0 0 0 0 0 0 0 0
0 0 0 0 0 0 0 0 0 0 0 0 0 0 0 0 1 0 0 0 0 0 0 0 0 0 0 0 0 0 0 0 0 0 0 0 0 0 0 0 0 0 0 0 0 0 0 0 0
0 0 0 0 0 0 0 0 0 0 0 0 0 0 0 0 0 0 0 0 0 0 0 0 0 0 0 0 0 0 0 0 0 0 0 0 0 0 0 0 0 0 0 0 0 0 0 0 0
0 0 0 0 0 0 0 0 0 0 0 0 0 0 0 0 0 0 0 0 0 0 0 0 0 0 0 0 0 0 0 0 0 0 0 0 0 0 0 0 0 0 0 0 0 0 0 0 0
0 0 0 0 0 0 0 0 0 0 0 0 0 0 0 0 0 0 0 0 0 0 0 0 0 0 0 0 0 0 0 0 0 0 0 0 0 0 0 0 0 0 0 0 0 0 0 0 0
0 0 0 0 0 0 0 0 0 0 0 0 0 0 0 0 0 0 0 0 0 0 0 0 0 0 0 0 0 0 0 0 0 0 0 0 0 0 0 0 0 0 0 0 0 0 0 0 0
0 0 0 0 0 0 0 0 0 0 0 0 0 0 0 0 0 0 0 0 0 0 0 0 0 0 0 0 0 0 0 0 0 0 0 0 0 0 0 0 0 0 0 0 0 0 0 0 0
0 0 0 0 0 0 0 0 0 0 0 0 0 0 0 0 0 0 0 0 0 0 0 0 0 0 0 0 0 0 0 0 0 0 0 0 0 0 0 0 0 0 0 0 0 0 0 0 0
0 0 0 0 0 0 0 0 0 0 0 0 0 0 0 0 0 0 0 0 0 0 0 0 0 0 0 0 0 0 0 0 0 0 0 0 0 0 0 0 0 0 0 0 0 0 0 0 0
0 0 0 0 0 0 0 0 0 0 0 0 0 0 0 0 0 0 0 0 0 0 0 0 0 0 0 0 0 0 0 0 0 0 0 0 0 0 0 0 0 0 0 0 0 0 0 0 0
0 0 0 0 0 0 0 0 0 0 0 0 0 0 0 0 0 0 0 0 0 0 0 0 0 0 0 0 0 0 0 0 0 0 0 0 0 0 0 0 0 0 0 0 0 0 0 0 0
0 0 0 0 0 0 0 0 0 0 0 0 0 0 0 0 0 0 0 0 0 0 0 0 0 0 0 0 0 0 0 0 0 0 0 0 0 0 0 0 0 0 0 0 0 0 0 0 0
0 0 0 0 0 0 0 0 0 0 0 0 0 0 0 0 0 0 0 0 0 0 0 0 0 0 0 0 0 0 0 0 0 0 0 0 0 0 0 0 0 0 0 0 0 0 0 0 0
0 0 0 0 0 0 0 0 0 0 0 0 0 0 0 0 0 0 0 0 0 0 0 0 0 0 0 0 0 0 0 0 0 0 0 0 0 0 0 0 0 0 0 0 0 0 0 0 0
0 0 0 0 0 0 0 0 0 0 0 0 0 0 0 0 0 0 0 0 0 0 0 0 0 0 0 0 0 0 0 0 0 0 0 0 0 0 0 0 0 0 0 0 0 0 0 0 0
0 0 0 0 0 0 0 0 0 0 0 0 0 0 0 0 0 0 0 0 0 0 0 0 0 0 0 0 0 0 0 0 0 0 0 0 0 0 0 0 0 0 0 0 0 0 0 0 0
0 0 0 0 0 0 0 0 0 0 0 0 0 0 0 0 0 0 0 0 0 0 0 0 0 0 0 0 0 0 0 0 0 0 0 0 0 0 0 0 0 0 0 0 0 0 0 0 0
0 0 0 0 0 0 0 0 0 0 0 0 0 0 0 0 0 0 0 0 0 0 0 0 0 0 0 0 0 0 0 0 0 0 0 0 0 0 0 0 0 0 0 0 0 0 0 0 0
0 0 0 0 0 0 0 0 0 0 0 0 0 0 0 0 0 0 0 0 0 0 0 0 0 0 0 0 0 0 0 0 0 0 0 0 0 0 0 0 0 0 0 0 0 0 0 0 0
0 0 0 0 0 0 0 0 0 0 0 0 0 0 0 0 0 0 0 0 0 0 0 0 0 0 0 0 0 0 0 0 0 0 0 0 0 0 0 0 0 0 0 0 0 0 0 0 0
0 0 0 0 0 0 0 0 0 0 0 0 0 0 0 0 0 0 0 0 0 0 0 0 0 0 0 0 0 0 0 0 0 0 0 0 0 0 0 0 0 0 0 0 0 0 0 0 0
0 0 0 0 0 0 0 0 0 0 0 0 0 0 0 0 0 0 0 0 0 0 0 -0 0 0 0 0 0 0 0 0 0 0 0 0 0 0 0 0 0 0 0 0 0 0 0 0 0
0 0 0 0 0 0 0 0 0 0 0 0 0 0 0 0 0 0 0 -0 -0 -0 -0 -0 -0 -0 -0 -0 -0 -0 -0 -0 0 0 0 0 0 0 0 0 0 0 0 0 0 0 0 0 0
Wind_Speed_500mb
10 10 7 2 5 6 3 7 1 9 11 7 36 16 12 20 10 6 10 1 11 21 34 32 30 30 30 30 28 28 29 29 28 25 25 23 21 19 16 15 14 15 17 18 13 12 11 10 7
8 11 9 6 6 2 6 7 9 8 9 35 30 13 6 9 12 9 8 3 16 16 27 30 28 27 27 28 28 29 30 28 26 25 25 25 23 21 19 18 16 17 18 17 18 18 14 7 5
6 14 8 6 5 8 6 8 8 7 23 16 13 14 11 7 10 6 5 5 9 18 28 28 28 28 28 29 27 29 28 27 25 25 26 24 24 23 23 22 21 23 24 23 19 13 8 5 1
8 8 8 5 8 8 9 6 5 21 8 7 12 15 18 15 9 6 4 4 6 15 25 24 26 27 27 29 28 27 27 27 26 26 25 24 26 25 26 25 25 18 8 9 8 7 5 2 1
13 5 5 3 5 7 9 13 3 9 25 28 22 12 22 29 16 7 4 4 6 9 18 27 26 29 29 32 32 30 29 29 28 28 27 26 25 28 24 20 17 13 8 7 7 5 3 1 2
6 4 5 4 7 8 11 20 5 5 11 27 10 10 10 14 16 8 3 5 6 8 16 24 27 29 31 34 33 32 30 30 29 27 28 30 25 26 22 20 17 11 7 5 5 4 1 2 5
10 6 6 6 6 6 7 10 1 5 11 3 21 6 8 13 1 9 9 8 7 13 18 24 26 30 32 35 36 34 33 32 29 32 34 30 25 24 22 19 14 10 7 4 1 2 4 6 8
8 8 5 7 4 7 6 10 7 16 8 29 17 4 10 44 9 16 12 17 18 20 23 23 27 31 36 37 36 36 35 33 33 35 32 27 25 24 19 15 13 10 6 4 3 4 7 9 13
10 5 5 6 9 5 4 12 8 19 10 29 15 10 29 41 5 11 15 16 17 18 26 27 28 32 32 38 41 38 36 36 36 34 28 28 25 22 20 15 11 8 5 4 6 8 11 14 15
7 6 11 8 4 2 15 6 19 11 25 12 14 23 30 29 25 9 17 17 18 19 24 26 31 34 31 33 39 41 41 41 38 33 31 30 26 23 18 15 11 8 5 5 9 13 15 14 13
6 8 6 5 10 8 4 11 6 8 8 31 30 37 37 34 26 17 17 21 20 20 19 30 36 29 25 26 34 39 42 43 42 37 34 28 25 22 20 16 13 10 7 7 11 12 11 11 12
1 9 10 7 4 10 9 13 12 15 21 37 37 39 35 35 27 18 22 20 22 27 25 26 29 31 34 45 29 37 40 47 42 40 37 35 24 22 19 17 14 11 8 9 9 8 10 11 11
5 4 7 18 26 32 22 20 13 19 20 22 20 21 21 17 18 28 29 27 26 30 31 29 29 35 35 29 21 29 18 31 40 34 33 29 29 27 21 18 14 11 10 8 6 7 9 10 10
5 9 21 19 22 17 10 7 1 6 33 25 20 11 8 8 12 17 29 34 36 34 34 33 27 32 35 33 30 29 27 32 40 33 27 26 25 26 25 19 15 11 13 11 6 6 9 10 9
7 9 12 6 7 5 6 4 7 33 35 29 24 11 14 16 14 17 27 36 42 43 37 36 32 33 36 37 31 36 39 39 37 35 28 20 24 26 26 26 21 14 14 13 5 6 9 10 9
6 7 6 7 13 9 3 10 15 44 30 21 22 22 17 16 13 17 20 26 34 44 42 35 34 33 36 34 36 36 37 39 38 34 22 28 30 30 35 30 23 16 15 13 6 6 9 10 8
11 2 3 13 8 9 10 10 18 34 28 30 28 25 22 18 12 12 15 19 22 32 42 36 31 31 31 34 37 37 37 36 38 37 31 29 40 40 41 33 25 18 16 9 4 8 11 11 9
3 2 4 7 6 10 9 7 9 26 29 29 29 30 28 26 27 21 16 13 14 18 31 39 36 32 30 29 32 32 32 33 31 40 32 40 49 44 49 31 23 20 13 2 11 14 14 12 10
8 4 5 9 9 4 5 6 7 15 26 28 29 31 31 32 27 22 16 13 9 12 16 24 36 38 38 36 34 30 29 24 24 40 36 43 56 43 36 29 43 27 10 11 18 17 16 14 13
4 4 8 10 7 2 4 9 1 8 10 20 25 33 34 33 33 32 27 20 15 8 9 16 22 27 31 34 30 30 28 22 20 30 38 33 40 41 39 40 30 22 21 21 19 17 17 16 16
8 8 9 12 7 5 5 8 8 1 9 17 26 28 35 40 44 46 43 36 27 21 13 4 13 14 13 18 21 25 28 25 22 24 33 27 37 39 46 40 37 21 24 21 17 18 19 19 20
6 11 9 6 4 6 4 8 9 8 4 8 18 28 33 38 43 47 50 50 44 38 28 17 9 6 11 11 12 17 20 22 21 18 23 31 34 42 46 45 46 33 22 19 17 19 21 21 21
10 7 6 1 4 6 2 2 8 9 9 6 7 18 26 32 38 45 50 52 53 46 38 31 18 11 4 6 12 19 18 17 18 15 15 20 24 30 40 39 36 31 22 21 20 21 24 24 24
14 9 11 8 4 4 11 11 9 12 11 9 6 13 20 26 32 38 42 46 51 51 50 42 32 24 10 1 9 13 18 17 11 11 11 15 18 21 25 36 46 46 43 43 24 26 27 27 28
6 10 4 7 5 12 4 7 11 9 12 18 20 14 18 22 28 35 41 45 47 50 52 50 48 42 29 17 3 10 9 15 17 13 11 10 13 19 20 28 39 39 44 45 42 29 28 31 31
11 14 11 13 7 7 4 12 7 3 26 35 23 17 17 19 24 30 35 39 42 45 46 45 45 43 40 35 22 12 11 16 17 21 21 22 16 14 17 23 33 40 35 43 40 32 32 33 34
6 8 4 13 3 5 7 7 3 8 10 19 18 14 14 16 19 22 26 30 33 37 41 42 40 38 36 34 32 28 18 13 18 20 22 24 26 19 16 22 23 35 42 41 39 37 35 35 37
5 9 5 4 5 10 7 9 8 18 16 12 11 12 10 11 13 16 20 23 26 30 33 34 35 37 35 32 30 28 29 25 17 18 23 26 31 27 23 24 28 31 39 43 43 40 37 38 39
1 4 3 4 7 9 2 9 6 7 23 23 26 17 9 4 9 15 19 21 22 25 27 29 30 30 30 31 31 30 27 25 26 19 20 24 29 31 34 31 31 36 41 46 44 35 42 45 40
4 3 5 7 10 3 4 13 9 9 24 38 28 17 5 3 11 22 32 27 23 21 23 26 27 29 30 31 31 32 32 29 26 26 23 22 27 29 34 37 38 38 41 44 44 38 42 46 42
Wind_Direction_500mb
224 210 197 196 57 57 268 250 296 286 330 349 317 269 255 275 254 265 330 119 176 177 183 179 175 176 181 181 182 182 184 189 190 188 192 189 186 184 177 173 169 160 152 142 128 130 133 144 155
209 183 154 102 106 140 261 268 249 237 291 325 330 338 238 270 265 301 140 29 155 188 191 191 175 173 177 179 177 181 182 187 187 183 183 184 183 180 174 171 165 153 147 146 142 148 158 163 154
185 163 138 113 116 185 214 239 276 289 325 336 340 328 294 275 304 306 238 201 213 173 203 202 180 174 178 176 178 182 181 186 191 187 184 181 179 173 166 163 156 145 139 145 156 167 155 156 178
154 126 77 115 207 238 222 243 219 321 340 17 358 313 307 298 304 309 229 218 203 190 182 197 189 177 180 176 179 182 182 183 188 186 190 179 174 174 171 173 165 169 177 165 163 151 155 164 354
152 106 81 72 278 257 260 273 12 327 306 305 317 278 291 300 270 284 276 240 221 214 196 193 188 182 181 179 181 184 185 186 185 179 181 174 172 175 176 173 180 192 186 155 154 149 144 121 358
105 87 74 228 237 240 257 276 289 239 297 314 328 289 276 286 280 320 300 251 222 221 204 195 189 190 185 185 184 186 185 183 177 178 175 180 180 181 182 183 187 183 180 169 153 136 125 319 317
111 83 176 202 247 298 245 333 283 327 289 327 326 253 285 348 237 245 273 247 231 208 201 204 207 197 191 189 187 186 182 179 179 186 186 190 184 185 186 190 185 185 174 174 216 303 312 309 313
117 93 171 238 200 269 316 0 51 13 319 351 359 11 355 340 276 205 222 239 231 216 205 213 213 206 196 192 189 187 185 190 189 193 196 192 190 184 187 188 187 184 192 208 255 286 299 303 305
124 74 238 252 162 239 1 15 331 337 305 341 357 39 2 356 298 217 240 247 250 242 237 227 216 219 208 199 193 190 194 199 201 202 196 195 193 189 187 188 197 196 208 247 282 295 302 305 306
115 135 222 223 213 340 325 342 326 327 327 317 326 308 323 352 355 266 259 256 258 256 252 246 242 216 215 214 208 200 201 207 206 207 195 193 190 192 194 193 200 210 223 269 296 304 308 313 318
155 196 216 277 276 321 321 309 334 301 301 301 297 307 313 318 342 333 270 275 269 263 251 254 257 238 216 223 223 221 216 211 208 207 200 189 191 196 198 202 204 216 246 277 297 303 309 317 319
141 254 234 262 255 323 307 292 291 251 277 298 290 292 289 295 310 301 296 287 274 263 257 248 252 243 241 283 279 241 222 214 219 224 212 192 197 206 209 211 211 220 243 278 291 300 311 312 312
190 276 271 279 291 292 280 261 261 288 353 343 310 283 282 284 278 273 274 273 273 261 262 253 241 244 250 245 267 258 254 238 239 250 228 211 193 210 215 214 218 236 258 262 274 294 308 309 310
303 297 293 297 295 277 256 253 179 193 352 352 22 356 316 292 280 276 272 269 268 269 258 256 247 243 258 252 240 244 241 257 243 253 254 247 221 207 211 205 216 243 272 250 237 292 303 304 302
320 337 326 343 332 357 302 302 121 356 337 335 343 341 327 324 305 281 278 273 270 255 256 250 252 244 252 261 250 236 240 250 261 262 260 262 258 236 218 209 207 225 244 242 234 267 292 292 291
23 53 360 307 340 12 61 271 21 360 353 6 353 346 339 338 324 305 294 283 277 258 252 246 239 243 247 248 260 259 252 246 250 259 276 265 256 243 214 211 206 216 236 233 223 274 288 283 278
14 285 312 318 29 352 48 276 355 13 34 29 19 14 7 353 340 321 296 287 273 262 250 249 243 237 248 249 251 257 262 257 254 244 261 275 248 237 210 206 202 203 224 229 241 291 288 280 272
235 247 265 268 311 346 320 272 341 25 40 38 25 24 21 16 7 353 336 305 277 252 244 240 243 239 241 241 245 253 260 261 256 231 252 259 271 237 222 191 220 202 201 289 296 281 274 261 251
120 168 261 262 276 284 303 300 345 23 43 34 32 31 30 29 19 13 4 348 324 266 239 231 234 238 242 243 244 245 255 272 265 230 239 253 255 248 213 196 228 229 239 265 263 265 264 249 224
160 207 259 273 245 198 340 283 156 32 50 48 39 38 36 39 36 28 24 24 16 350 274 241 237 238 243 246 243 244 251 268 267 257 247 250 257 238 214 216 209 207 232 238 247 254 251 244 228
195 191 220 229 326 264 337 276 220 256 80 62 61 57 51 42 40 39 36 33 32 34 28 12 232 224 238 251 247 247 249 257 263 266 254 263 262 230 221 201 194 208 230 236 244 253 251 256 249
203 204 216 222 146 244 53 275 248 186 128 43 46 54 52 52 53 49 46 44 39 36 35 42 90 145 172 203 238 247 261 259 266 277 274 257 257 243 239 210 203 202 232 242 250 255 260 260 260
215 132 140 154 129 350 214 81 263 134 206 178 61 60 59 55 53 52 51 50 50 48 46 45 52 78 125 207 211 219 230 242 252 261 275 271 273 252 238 230 222 220 219 245 258 263 266 266 265
148 85 50 48 69 324 217 176 237 190 188 159 148 79 64 61 56 55 52 53 52 52 53 51 47 51 69 141 241 247 238 234 242 246 269 286 276 268 240 232 219 230 236 247 269 266 271 272 267
133 98 328 344 7 226 323 201 260 195 159 152 151 107 74 62 58 52 48 45 45 45 45 47 48 48 43 41 337 271 273 253 235 229 236 268 287 294 293 265 236 216 224 236 252 264 271 270 271
191 163 165 209 212 260 125 236 263 110 131 135 131 117 93 66 54 48 43 39 35 33 36 36 38 39 41 41 29 8 302 269 264 257 249 241 254 274 282 275 247 242 231 217 244 266 267 271 271
204 193 168 104 43 30 225 288 167 136 132 142 138 126 96 75 54 44 39 31 27 25 23 22 23 27 27 29 28 22 6 321 286 271 264 257 238 235 245 251 257 243 234 224 243 263 265 269 271
205 165 98 1 164 232 276 275 235 198 189 182 177 157 123 78 55 33 20 17 15 13 12 9 8 9 10 9 13 13 4 357 339 293 260 249 243 230 225 235 242 247 242 230 241 264 269 271 271
9 280 11 152 157 184 234 257 21 251 192 183 194 181 160 90 34 12 358 349 349 353 352 352 352 355 354 355 355 355 355 352 345 330 297 270 251 242 236 230 235 237 244 243 244 241 271 268 267
282 263 175 171 245 206 161 261 331 292 176 173 185 181 189 311 345 340 326 315 309 320 333 339 344 345 348 349 347 345 341 340 338 332 320 288 268 254 244 238 230 235 236 245 240 232 255 266 266
Wind_Speed_850mb
10 10 7 2 5 6 3 7 1 9 11 7 36 16 12 20 10 6 10 1 11 21 34 32 30 30 30 30 28 28 29 29 28 25 25 23 21 19 16 15 14 15 17 18 13 12 11 10 7
8 11 9 6 6 2 6 7 9 8 9 35 30 13 6 9 12 9 8 3 16 16 27 30 28 27 27 28 28 29 30 28 26 25 25 25 23 21 19 18 16 17 18 17 18 18 14 7 5
6 14 8 6 5 8 6 8 8 7 23 16 13 14 11 7 10 6 5 5 9 18 28 28 28 28 28 29 27 29 28 27 25 25 26 24 24 23 23 22 21 23 24 23 19 13 8 5 1
8 8 8 5 8 8 9 6 5 21 8 7 12 15 18 15 9 6 4 4 6 15 25 24 26 27 27 29 28 27 27 27 26 26 25 24 26 25 26 25 25 18 8 9 8 7 5 2 1
13 5 5 3 5 7 9 13 3 9 25 28 22 12 22 29 16 7 4 4 6 9 18 27 26 29 29 32 32 30 29 29 28 28 27 26 25 28 24 20 17 13 8 7 7 5 3 1 2
6 4 5 4 7 8 11 20 5 5 11 27 10 10 10 14 16 8 3 5 6 8 16 24 27 29 31 34 33 32 30 30 29 27 28 30 25 26 22 20 17 11 7 5 5 4 1 2 5
10 6 6 6 6 6 7 10 1 5 11 3 21 6 8 13 1 9 9 8 7 13 18 24 26 30 32 35 36 34 33 32 29 32 34 30 25 24 22 19 14 10 7 4 1 2 4 6 8
8 8 5 7 4 7 6 10 7 16 8 29 17 4 10 44 9 16 12 17 18 20 23 23 27 31 36 37 36 36 35 33 33 35 32 27 25 24 19 15 13 10 6 4 3 4 7 9 13
10 5 5 6 9 5 4 12 8 19 10 29 15 10 29 41 5 11 15 16 17 18 26 27 28 32 32 38 41 38 36 36 36 34 28 28 25 22 20 15 11 8 5 4 6 8 11 14 15
7 6 11 8 4 2 15 6 19 11 25 12 14 23 30 29 25 9 17 17 18 19 24 26 31 34 31 33 39 41 41 41 38 33 31 30 26 23 18 15 11 8 5 5 9 13 15 14 13
6 8 6 5 10 8 4 11 6 8 8 31 30 37 37 34 26 17 17 21 20 20 19 30 36 29 25 26 34 39 42 43 42 37 34 28 25 22 20 16 13 10 7 7 11 12 11 11 12
1 9 10 7 4 10 9 13 12 15 21 37 37 39 35 35 27 18 22 20 22 27 25 26 29 31 34 45 29 37 40 47 42 40 37 35 24 22 19 17 14 11 8 9 9 8 10 11 11
5 4 7 18 26 32 22 20 13 19 20 22 20 21 21 17 18 28 29 27 26 30 31 29 29 35 35 29 21 29 18 31 40 34 33 29 29 27 21 18 14 11 10 8 6 7 9 10 10
5 9 21 19 22 17 10 7 1 6 33 25 20 11 8 8 12 17 29 34 36 34 34 33 27 32 35 33 30 29 27 32 40 33 27 26 25 26 25 19 15 11 13 11 6 6 9 10 9
7 9 12 6 7 5 6 4 7 33 35 29 24 11 14 16 14 17 27 36 42 43 37 36 32 33 36 37 31 36 39 39 37 35 28 20 24 26 26 26 21 14 14 13 5 6 9 10 9
6 7 6 7 13 9 3 10 15 44 30 21 22 22 17 16 13 17 20 26 34 44 42 35 34 33 36 34 36 36 37 39 38 34 22 28 30 30 35 30 23 16 15 13 6 6 9 10 8
11 2 3 13 8 9 10 10 18 34 28 30 28 25 22 18 12 12 15 19 22 32 42 36 31 31 31 34 37 37 37 36 38 37 31 29 40 40 41 33 25 18 16 9 4 8 11 11 9
3 2 4 7 6 10 9 7 9 26 29 29 29 30 28 26 27 21 16 13 14 18 31 39 36 32 30 29 32 32 32 33 31 40 32 40 49 44 49 31 23 20 13 2 11 14 14 12 10
8 4 5 9 9 4 5 6 7 15 26 28 29 31 31 32 27 22 16 13 9 12 16 24 36 38 38 36 34 30 29 24 24 40 36 43 56 43 36 29 43 27 10 11 18 17 16 14 13
4 4 8 10 7 2 4 9 1 8 10 20 25 33 34 33 33 32 27 20 15 8 9 16 22 27 31 34 30 30 28 22 20 30 38 33 40 41 39 40 30 22 21 21 19 17 17 16 16
8 8 9 12 7 5 5 8 8 1 9 17 26 28 35 40 44 46 43 36 27 21 13 4 13 14 13 18 21 25 28 25 22 24 33 27 37 39 46 40 37 21 24 21 17 18 19 19 20
6 11 9 6 4 6 4 8 9 8 4 8 18 28 33 38 43 47 50 50 44 38 28 17 9 6 11 11 12 17 20 22 21 18 23 31 34 42 46 45 46 33 22 19 17 19 21 21 21
10 7 6 1 4 6 2 2 8 9 9 6 7 18 26 32 38 45 50 52 53 46 38 31 18 11 4 6 12 19 18 17 18 15 15 20 24 30 40 39 36 31 22 21 20 21 24 24 24
14 9 11 8 4 4 11 11 9 12 11 9 6 13 20 26 32 38 42 46 51 51 50 42 32 24 10 1 9 13 18 17 11 11 11 15 18 21 25 36 46 46 43 43 24 26 27 27 28
6 10 4 7 5 12 4 7 11 9 12 18 20 14 18 22 28 35 41 45 47 50 52 50 48 42 29 17 3 10 9 15 17 13 11 10 13 19 20 28 39 39 44 45 42 29 28 31 31
11 14 11 13 7 7 4 12 7 3 26 35 23 17 17 19 24 30 35 39 42 45 46 45 45 43 40 35 22 12 11 16 17 21 21 22 16 14 17 23 33 40 35 43 40 32 32 33 34
6 8 4 13 3 5 7 7 3 8 10 19 18 14 14 16 19 22 26 30 33 37 41 42 40 38 36 34 32 28 18 13 18 20 22 24 26 19 16 22 23 35 42 41 39 37 35 35 37
5 9 5 4 5 10 7 9 8 18 16 12 11 12 10 11 13 16 20 23 26 30 33 34 35 37 35 32 30 28 29 25 17 18 23 26 31 27 23 24 28 31 39 43 43 40 37 38 39
1 4 3 4 7 9 2 9 6 7 23 23 26 17 9 4 9 15 19 21 22 25 27 29 30 30 30 31 31 30 27 25 26 19 20 24 29 31 34 31 31 36 41 46 44 35 42 45 40
4 3 5 7 10 3 4 13 9 9 24 38 28 17 5 3 11 22 32 27 23 21 23 26 27 29 30 31 31 32 32 29 26 26 23 22 27 29 34 37 38 38 41 44 44 38 42 46 42
Wind_Direction_850mb
224 210 197 196 57 57 268 250 296 286 330 349 317 269 255 275 254 265 330 119 176 177 183 179 175 176 181 181 182 182 184 189 190 188 192 189 186 184 177 173 169 160 152 142 128 130 133 144 155
209 183 154 102 106 140 261 268 249 237 291 325 330 338 238 270 265 301 140 29 155 188 191 191 175 173 177 179 177 181 182 187 187 183 183 184 183 180 174 171 165 153 147 146 142 148 158 163 154
185 163 138 113 116 185 214 239 276 289 325 336 340 328 294 275 304 306 238 201 213 173 203 202 180 174 178 176 178 182 181 186 191 187 184 181 179 173 166 163 156 145 139 145 156 167 155 156 178
154 126 77 115 207 238 222 243 219 321 340 17 358 313 307 298 304 309 229 218 203 190 182 197 189 177 180 176 179 182 182 183 188 186 190 179 174 174 171 173 165 169 177 165 163 151 155 164 354
152 106 81 72 278 257 260 273 12 327 306 305 317 278 291 300 270 284 276 240 221 214 196 193 188 182 181 179 181 184 185 186 185 179 181 174 172 175 176 173 180 192 186 155 154 149 144 121 358
105 87 74 228 237 240 257 276 289 239 297 314 328 289 276 286 280 320 300 251 222 221 204 195 189 190 185 185 184 186 185 183 177 178 175 180 180 181 182 183 187 183 180 169 153 136 125 319 317
111 83 176 202 247 298 245 333 283 327 289 327 326 253 285 348 237 245 273 247 231 208 201 204 207 197 191 189 187 186 182 179 179 186 186 190 184 185 186 190 185 185 174 174 216 303 312 309 313
117 93 171 238 200 269 316 0 51 13 319 351 359 11 355 340 276 205 222 239 231 216 205 213 213 206 196 192 189 187 185 190 189 193 196 192 190 184 187 188 187 184 192 208 255 286 299 303 305
124 74 238 252 162 239 1 15 331 337 305 341 357 39 2 356 298 217 240 247 250 242 237 227 216 219 208 199 193 190 194 199 201 202 196 195 193 189 187 188 197 196 208 247 282 295 302 305 306
115 135 222 223 213 340 325 342 326 327 327 317 326 308 323 352 355 266 259 256 258 256 252 246 242 216 215 214 208 200 201 207 206 207 195 193 190 192 194 193 200 210 223 269 296 304 308 313 318
155 196 216 277 276 321 321 309 334 301 301 301 297 307 313 318 342 333 270 275 269 263 251 254 257 238 216 223 223 221 216 211 208 207 200 189 191 196 198 202 204 216 246 277 297 303 309 317 319
141 254 234 262 255 323 307 292 291 251 277 298 290 292 289 295 310 301 296 287 274 263 257 248 252 243 241 283 279 241 222 214 219 224 212 192 197 206 209 211 211 220 243 278 291 300 311 312 312
190 276 271 279 291 292 280 261 261 288 353 343 310 283 282 284 278 273 274 273 273 261 262 253 241 244 250 245 267 258 254 238 239 250 228 211 193 210 215 214 218 236 258 262 274 294 308 309 310
303 297 293 297 295 277 256 253 179 193 352 352 22 356 316 292 280 276 272 269 268 269 258 256 247 243 258 252 240 244 241 257 243 253 254 247 221 207 211 205 216 243 272 250 237 292 303 304 302
320 337 326 343 332 357 302 302 121 356 337 335 343 341 327 324 305 281 278 273 270 255 256 250 252 244 252 261 250 236 240 250 261 262 260 262 258 236 218 209 207 225 244 242 234 267 292 292 291
23 53 360 307 340 12 61 271 21 360 353 6 353 346 339 338 324 305 294 283 277 258 252 246 239 243 247 248 260 259 252 246 250 259 276 265 256 243 214 211 206 216 236 233 223 274 288 283 278
14 285 312 318 29 352 48 276 355 13 34 29 19 14 7 353 340 321 296 287 273 262 250 249 243 237 248 249 251 257 262 257 254 244 261 275 248 237 210 206 202 203 224 229 241 291 288 280 272
235 247 265 268 311 346 320 272 341 25 40 38 25 24 21 16 7 353 336 305 277 252 244 240 243 239 241 241 245 253 260 261 256 231 252 259 271 237 222 191 220 202 201 289 296 281 274 261 251
120 168 261 262 276 284 303 300 345 23 43 34 32 31 30 29 19 13 4 348 324 266 239 231 234 238 242 243 244 245 255 272 265 230 239 253 255 248 213 196 228 229 239 265 263 265 264 249 224
160 207 259 273 245 198 340 283 156 32 50 48 39 38 36 39 36 28 24 24 16 350 274 241 237 238 243 246 243 244 251 268 267 257 247 250 257 238 214 216 209 207 232 238 247 254 251 244 228
195 191 220 229 326 264 337 276 220 256 80 62 61 57 51 42 40 39 36 33 32 34 28 12 232 224 238 251 247 247 249 257 263 266 254 263 262 230 221 201 194 208 230 236 244 253 251 256 249
203 204 216 222 146 244 53 275 248 186 128 43 46 54 52 52 53 49 46 44 39 36 35 42 90 145 172 203 238 247 261 259 266 277 274 257 257 243 239 210 203 202 232 242 250 255 260 260 260
215 132 140 154 129 350 214 81 263 134 206 178 61 60 59 55 53 52 51 50 50 48 46 45 52 78 125 207 211 219 230 242 252 261 275 271 273 252 238 230 222 220 219 245 258 263 266 266 265
148 85 50 48 69 324 217 176 237 190 188 159 148 79 64 61 56 55 52 53 52 52 53 51 47 51 69 141 241 247 238 234 242 246 269 286 276 268 240 232 219 230 236 247 269 266 271 272 267
133 98 328 344 7 226 323 201 260 195 159 152 151 107 74 62 58 52 48 45 45 45 45 47 48 48 43 41 337 271 273 253 235 229 236 268 287 294 293 265 236 216 224 236 252 264 271 270 271
191 163 165 209 212 260 125 236 263 110 131 135 131 117 93 66 54 48 43 39 35 33 36 36 38 39 41 41 29 8 302 269 264 257 249 241 254 274 282 275 247 242 231 217 244 266 267 271 271
204 193 168 104 43 30 225 288 167 136 132 142 138 126 96 75 54 44 39 31 27 25 23 22 23 27 27 29 28 22 6 321 286 271 264 257 238 235 245 251 257 243 234 224 243 263 265 269 271
205 165 98 1 164 232 276 275 235 198 189 182 177 157 123 78 55 33 20 17 15 13 12 9 8 9 10 9 13 13 4 357 339 293 260 249 243 230 225 235 242 247 242 230 241 264 269 271 271
9 280 11 152 157 184 234 257 21 251 192 183 194 181 160 90 34 12 358 349 349 353 352 352 352 355 354 355 355 355 355 352 345 330 297 270 251 242 236 230 235 237 244 243 244 241 271 268 267
282 263 175 171 245 206 161 261 331 292 176 173 185 181 189 311 345 340 326 315 309 320 333 339 344 345 348 349 347 345 341 340 338 332 320 288 268 254 244 238 230 235 236 245 240 232 255 266 266